Location: Yellowknife
(62.4500°N, 114.3500°W)
Time: 08:22:57
(UTC-06:00)

N. Korean satellite - Visible Passes

Search period start: 23 September 2018 00:00
Search period end: 03 October 2018 00:00
Orbit: 458 x 511 km, 97.2° (Epoch: 22 September)

Date Brightness Start Highest point End Pass type
(mag) Time Alt. Az. Time Alt. Az. Time Alt. Az.
24 Sep 10.7 06:39:18 10° ENE 06:40:36 11° E 06:41:54 10° ESE visible
24 Sep 10.2 20:33:35 10° WSW 20:35:14 13° W 20:36:54 10° NW visible
25 Sep 9.8 20:07:56 10° SW 20:10:35 19° W 20:13:16 10° NW visible
28 Sep 10.8 06:35:37 10° ENE 06:36:37 11° E 06:37:37 10° E visible
28 Sep 10.2 20:29:18 10° WSW 20:31:13 14° W 20:33:10 10° NW visible
29 Sep 9.8 20:03:47 10° SW 20:06:35 21° W 20:09:26 10° NW visible
01 Oct 10.3 06:54:58 10° NE 06:57:18 15° E 06:59:36 10° ESE visible
02 Oct 10.9 06:32:09 10° ENE 06:32:36 10° E 06:33:04 10° E visible
02 Oct 10.1 20:25:03 10° WSW 20:27:12 15° W 20:29:22 10° NW visible
